Location: Newport
(44.6370°N, 124.0520°W)
Time: 03:17:24
(UTC-08:00)

Tiangong 2 - Pass Details

Date: 13 October 2017
Orbit: 386 x 390 km, 42.8° (Epoch: 16 December)

Event Time Altitude Azimuth Distance (km) Brightness Sun altitude
Exits shadow 05:56:53 47° 221° (SW) 526 1.4 -17.2°
Maximum altitude 05:57:29 58° 173° (S) 460 1.4 -17.1°
Drops below altitude 10° 06:00:39 10° 94° (E) 1,426 5.2 -16.6°
Sets 06:02:45 0° 90° (E) 2,283 6.8 -16.2°
